Location: Mannheim
(49.4880°N, 8.4650°E)
Time: 06:29:08
(UTC+02:00)

ACS3 Solar Sail - Pass Details

Date: 27 September 2024
Orbit: 963 x 1036 km, 97.4° (Epoch: 04 October)

Event Time Altitude Azimuth Distance (km) Brightness Sun altitude
Exits shadow 22:57:37 12° 230° (SW) 2,653 4.1 -34.1°
Maximum altitude 23:01:41 22° 274° (W) 2,102 3.9 -34.6°
Drops below altitude 10° 23:06:29 10° 322° (NW) 2,833 5.0 -35.1°
Sets 23:09:41 0° 338° (NNW) 3,780 5.8 -35.4°
